TimePST,TemperatureF,Dew PointF,Humidity,Sea Level PressureIn,VisibilityMPH,Wind Direction,Wind SpeedMPH,Gust SpeedMPH,PrecipitationIn,Events,Conditions,WindDirDegrees,DateUTC
12:00 AM,33.8,32.0,93,30.58,1.2,Calm,Calm,-,N/A,,Overcast,0,2013-01-15 08:00:00
12:53 AM,34.0,32.0,92,30.58,2.0,Calm,Calm,-,N/A,,Overcast,0,2013-01-15 08:53:00
1:03 AM,33.8,32.0,93,30.58,3.0,Calm,Calm,-,N/A,,Overcast,0,2013-01-15 09:03:00
1:28 AM,33.8,32.0,93,30.58,3.0,Calm,Calm,-,N/A,,Overcast,0,2013-01-15 09:28:00
1:48 AM,33.8,32.0,93,30.59,3.0,Calm,Calm,-,N/A,,Overcast,0,2013-01-15 09:48:00
1:53 AM,34.0,32.0,92,30.59,3.0,Calm,Calm,-,N/A,,Overcast,0,2013-01-15 09:53:00
2:53 AM,34.0,32.0,92,30.61,3.0,Calm,Calm,-,N/A,,Overcast,0,2013-01-15 10:53:00
3:09 AM,33.8,32.0,93,30.61,2.0,Calm,Calm,-,N/A,,Overcast,0,2013-01-15 11:09:00
3:19 AM,33.8,32.0,93,30.61,1.5,Calm,Calm,-,N/A,,Overcast,0,2013-01-15 11:19:00
3:38 AM,33.8,33.8,100,30.61,1.2,Calm,Calm,-,N/A,,Overcast,0,2013-01-15 11:38:00
3:50 AM,33.8,33.8,100,30.61,1.2,Calm,Calm,-,N/A,,Overcast,0,2013-01-15 11:50:00
3:53 AM,34.0,33.1,96,30.61,1.2,Calm,Calm,-,N/A,,Overcast,0,2013-01-15 11:53:00
4:37 AM,35.6,33.8,93,30.61,2.5,Calm,Calm,-,N/A,,Overcast,0,2013-01-15 12:37:00
4:53 AM,35.1,33.1,92,30.60,2.0,Calm,Calm,-,N/A,,Overcast,0,2013-01-15 12:53:00
5:05 AM,35.6,33.8,93,30.60,1.5,Calm,Calm,-,N/A,,Overcast,0,2013-01-15 13:05:00
5:36 AM,35.6,33.8,93,30.60,2.5,Calm,Calm,-,N/A,,Overcast,0,2013-01-15 13:36:00
5:44 AM,35.6,33.8,93,30.60,3.0,Calm,Calm,-,N/A,,Overcast,0,2013-01-15 13:44:00
5:53 AM,35.1,33.1,92,30.61,3.0,Calm,Calm,-,N/A,,Overcast,0,2013-01-15 13:53:00
6:31 AM,35.6,33.8,93,30.61,2.0,Calm,Calm,-,N/A,,Overcast,0,2013-01-15 14:31:00
6:46 AM,35.6,33.8,93,30.62,1.8,Calm,Calm,-,N/A,,Overcast,0,2013-01-15 14:46:00
6:53 AM,35.1,33.1,92,30.62,2.0,West,3.5,-,N/A,,Overcast,260,2013-01-15 14:53:00
7:22 AM,35.6,33.8,93,30.62,4.0,West,3.5,-,N/A,,Overcast,260,2013-01-15 15:22:00
7:53 AM,35.1,33.1,92,30.63,3.0,Calm,Calm,-,N/A,,Overcast,0,2013-01-15 15:53:00
8:02 AM,35.6,33.8,93,30.64,2.0,WSW,3.5,-,N/A,,Overcast,250,2013-01-15 16:02:00
8:53 AM,36.0,34.0,93,30.66,2.0,Calm,Calm,-,N/A,,Overcast,0,2013-01-15 16:53:00
9:53 AM,37.0,34.0,89,30.66,2.0,West,4.6,-,N/A,,Overcast,260,2013-01-15 17:53:00
10:36 AM,37.4,33.8,87,30.67,2.0,WNW,3.5,-,N/A,,Overcast,290,2013-01-15 18:36:00
10:39 AM,37.4,33.8,87,30.67,3.0,WNW,3.5,-,N/A,,Overcast,290,2013-01-15 18:39:00
10:53 AM,37.9,34.0,86,30.67,3.0,Calm,Calm,-,N/A,,Overcast,0,2013-01-15 18:53:00
10:56 AM,37.4,33.8,87,30.67,7.0,Variable,3.5,-,N/A,,Overcast,0,2013-01-15 18:56:00
11:53 AM,39.0,34.0,82,30.66,8.0,NW,3.5,-,N/A,,Scattered Clouds,320,2013-01-15 19:53:00
11:57 AM,37.4,33.8,87,30.66,9.0,Calm,Calm,-,N/A,,Overcast,0,2013-01-15 19:57:00
12:53 PM,39.0,34.0,82,30.65,8.0,WSW,5.8,-,N/A,,Overcast,240,2013-01-15 20:53:00
1:53 PM,39.0,34.0,82,30.64,7.0,West,5.8,-,N/A,,Overcast,270,2013-01-15 21:53:00
2:53 PM,37.9,34.0,86,30.65,8.0,West,3.5,-,N/A,,Overcast,270,2013-01-15 22:53:00
2:55 PM,37.4,33.8,87,30.65,8.0,Variable,4.6,-,N/A,,Overcast,0,2013-01-15 22:55:00
3:53 PM,37.9,34.0,86,30.66,9.0,West,3.5,-,N/A,,Overcast,260,2013-01-15 23:53:00
4:53 PM,37.9,33.1,83,30.66,10.0,Calm,Calm,-,N/A,,Overcast,0,2013-01-16 00:53:00
5:53 PM,37.9,33.1,83,30.66,10.0,SW,3.5,-,N/A,,Overcast,230,2013-01-16 01:53:00
6:53 PM,37.0,33.1,86,30.66,10.0,West,3.5,-,N/A,,Overcast,280,2013-01-16 02:53:00
7:53 PM,37.0,32.0,82,30.66,10.0,West,3.5,-,N/A,,Overcast,280,2013-01-16 03:53:00
8:53 PM,37.0,32.0,82,30.66,10.0,West,3.5,-,N/A,,Overcast,270,2013-01-16 04:53:00
10:53 PM,36.0,33.1,89,30.66,6.0,Calm,Calm,-,N/A,,Overcast,0,2013-01-16 06:53:00
11:53 PM,36.0,34.0,93,30.65,5.0,Calm,Calm,-,N/A,,Overcast,0,2013-01-16 07:53:00